Search flights

Mc Carran Intl Airport, Las Vegas (KLAS)

Airport Weather & NOTAM's

METAR for:KLAS (Las Vegas/Reid Intl, NV, US)
Text:KLAS 180656Z 20010KT 10SM FEW130 31/M02 A2977 RMK AO2 SLP049 T03061022
Conditions at:0656 UTC 18 May 2024
Temperature: 30.6°C ( 87°F)
Dewpoint: -2.2°C ( 28°F) [RH = 12%]
Pressure (altimeter):29.77 inches Hg (1008.2 mb) [Sea level pressure: 1004.9 mb]
Winds:from the SSW (200 degrees) at 12 MPH (10 knots; 5.1 m/s)
Visibility:10 or more sm (16+ km)
Ceiling:at least 12,000 feet AGL
Clouds:few clouds at 13000 feet AGL
TAF for:KLAS (Las Vegas/Reid Intl, NV, US) issued at 0520 UTC 18 May 2024
Text:KLAS 180520Z 1806/1912 22008KT P6SM SKC
Forecast period:0600 to 1300 UTC 18 May 2024
Forecast type:FROM: standard forecast or significant change
Winds:from the SW (220 degrees) at 9 MPH (8 knots; 4.1 m/s)
Visibility:6 or more sm (10+ km)
Ceiling:at least 12,000 feet AGL
Clouds:clear skies
Text:FM181300 19006KT P6SM SCT150
Forecast period:1300 to 1900 UTC 18 May 2024
Forecast type:FROM: standard forecast or significant change
Winds:from the S (190 degrees) at 7 MPH (6 knots; 3.1 m/s)
Visibility:6 or more sm (10+ km)
Ceiling:at least 12,000 feet AGL
Clouds:scattered clouds at 15000 feet AGL
Text:FM181900 18010KT P6SM SCT250
Forecast period:1900 to 2200 UTC 18 May 2024
Forecast type:FROM: standard forecast or significant change
Winds:from the S (180 degrees) at 12 MPH (10 knots; 5.1 m/s)
Visibility:6 or more sm (10+ km)
Ceiling:at least 12,000 feet AGL
Clouds:scattered clouds at 25000 feet AGL
Text:FM182200 21014G22KT P6SM FEW120 BKN250
Forecast period:2200 UTC 18 May 2024 to 1200 UTC 19 May 2024
Forecast type:FROM: standard forecast or significant change
Winds:from the SSW (210 degrees) at 16 MPH (14 knots; 7.2 m/s) gusting to 25 MPH (22 knots; 11.3 m/s)
Visibility:6 or more sm (10+ km)
Ceiling:25000 feet AGL
Clouds:few clouds at 12000 feet AGL, broken clouds at 25000 feet AGL

Live Departures & Arrivals

Pilot Flight Number Departure Arrival Aircraft Stage DTG ETA
Andrew (ID: AAY956) AAY9300 KPIE KLAS Fenix A320 - Allegia... Climbing 2167.9nm 04:56

Departures History (last 12 months)

Flight No. Dest. Aircraft Date
AAY41 KMEM PMDG 737-8... 2024-05-15 19:01:57
AAY90 KSCK PMDG 737-8... 2024-05-14 18:24:30
AAY41 KMEM Fly The Ma... 2024-05-13 10:29:33
AAY41 KMEM Fenix A320... 2024-05-13 00:28:25
AAY39 KPVU FSLabs A31... 2024-05-13 23:42:13
AAY4760 KPHX Fenix A320... 2024-05-12 03:53:11
AAY41 KMEM Fenix A320... 2024-05-12 12:20:43
AAY56 KMSO Fenix A320... 2024-05-11 03:39:23
AAY84 KFWA Fly The Ma... 2024-05-06 16:58:51
AAY4100 KSBA FWB Allegi... 2024-05-04 23:27:28
AAY49 KFSD Fenix A320... 2024-05-02 09:12:27
AAY4120 KPHX Airbus A31... 2024-04-30 17:45:16
AAY1 KLEX Fenix A320... 2024-04-30 09:18:00
AAY276 KBLI ToLissA320... 2024-04-29 15:38:53
AAY49 KFSD Fly The Ma... 2024-04-28 19:23:21
AAY73 KSCK PA319 - Al... 2024-04-22 17:57:20
AAY31 KBOI FenixA320... 2024-04-22 13:39:32
AAY60 KOKC Fly The Ma... 2024-04-21 09:29:20
AAY9602 CYRQ Fenix A320... 2024-04-19 12:50:33
AAY3150 KFNT Fenix A320... 2024-04-15 13:16:35
AAY4902 KLAX FWB Allegi... 2024-04-10 05:17:35
AAY4902 KLAX FWB Allegi... 2024-04-09 08:16:47
AAY4902 KLAX FWB Allegi... 2024-04-04 19:22:50
AAY52 KMRY Fenix A320... 2024-03-31 17:47:54
AAY59 KOMA ToLiss319_... 2024-03-30 17:59:02
AAY369 KCVG Fenix A320... 2024-03-28 08:52:30
AAY3208 KATW FenixA320... 2024-03-27 13:10:21
AAY9100 KPGD FenixA320... 2024-03-26 09:42:16
AAY48 KSBN Fenix A320... 2024-03-23 17:43:21
AAY139 KFAT Fenix A320... 2024-03-19 02:07:03
AAY48 KDSM Fly The Ma... 2024-03-18 14:35:07
AAY9100 KPGD Fenix A320... 2024-03-16 21:02:19
AAY8009 KSEA Fenix A320... 2024-03-13 18:18:48
AAY8 KFAT Airbus A31... 2024-03-12 22:05:09
AAY30 KLRD Fenix A320... 2024-03-12 17:54:54
AAY8009 KSEA Fenix A320... 2024-03-11 14:10:13
AAY276 KBLI Fly The Ma... 2024-03-11 11:45:28
AAY31 KBOI Fenix A320... 2024-03-09 23:58:47
AAY4120 KLAX Fenix A320... 2024-03-06 04:45:35
AAY66 KELP Fenix A320... 2024-03-05 04:00:38
AAY8009 KSEA Fly The Ma... 2024-03-04 18:11:10
AAY383 KPHX ToLissA320... 2024-03-04 20:29:22
AAY598 KIND FenixA320_... 2024-03-02 06:56:44
AAY69 KOAK FenixA320_... 2024-03-01 11:35:08
AAY4120 KLAX FenixA320_... 2024-02-29 11:31:44
AAY42 KRFD FenixA320_... 2024-02-27 16:27:39
AAY8004 CYOW Fly The Ma... 2024-02-26 17:55:34
AAY4102 KSJC Fly The Ma... 2024-02-26 15:03:33
AAY9815 MMUN FenixA320_... 2024-02-25 06:18:04
AAY8004 CYOW FenixA320_... 2024-02-25 16:25:52
AAY4102 KSJC FenixA320_... 2024-02-25 13:57:00
AAY3214 KPHX FenixA320_... 2024-02-25 11:42:48
AAY31 KBOI FenixA320_... 2024-02-24 03:14:25
AAY103 KMOT FenixA320_... 2024-02-24 06:32:11
AAY8009 KSEA FenixA320_... 2024-02-23 04:45:18
AAY69 KOAK FWB Allegi... 2024-02-22 03:45:26
AAY8004 CYOW PMDG 737-8... 2024-02-21 15:30:47
AAY4102 KSJC Airbus A32... 2024-02-21 03:37:54
AAY8004 CYOW FenixA320_... 2024-02-20 17:30:40
AAY4102 KSJC FenixA320_... 2024-02-19 15:38:36
AAY3214 KPHX FenixA320_... 2024-02-19 10:58:47
AAY90 KIDA FenixA320_... 2024-02-18 01:48:02
AAY4102 KSJC PMDG 737-8... 2024-02-18 18:43:09
AAY3214 KPHX FenixA320_... 2024-02-18 16:30:04
AAY3214 KPHX PMDG 737-8... 2024-02-18 11:21:00
AAY9100 KPGD FenixA320_... 2024-02-17 13:24:01
AAY3188 KATW ToLissA319... 2024-02-14 19:47:47
AAY4103 KLAX FenixA320_... 2024-02-13 03:14:44
AAY4102 KSJC FWB Allegi... 2024-02-12 22:19:28
AAY3214 KPHX FWB Allegi... 2024-02-11 17:27:31
AAY3214 KPHX FWB Allegi... 2024-02-11 16:05:15
AAY3214 KPHX PMDG 737-8... 2024-02-08 02:33:24
AAY3214 KPHX Airbus A32... 2024-02-08 02:17:11
AAY3214 KPHX FenixA320_... 2024-02-08 01:08:45
AAY64 KDSM FenixA320_... 2024-02-06 10:59:42
AAY4100 KSBP FWB Allegi... 2024-02-04 16:34:32
AAY23 KSBN FenixA320_... 2024-02-04 15:54:07
AAY383 KPHX ToLissA320... 2024-02-03 20:37:04
AAY369 KCVG Airbus A32... 2024-02-03 23:04:21
AAY61 KCID Fly The Ma... 2024-01-29 19:13:42
AAY1640 KBOI FenixA320_... 2024-01-28 14:37:54
AAY1998 KCVG Fly The Ma... 2024-01-24 21:16:13
AAY1640 KBOI FenixA320_... 2024-01-24 01:28:16
AAY1 KLEX ToLissA320... 2024-01-24 10:00:12
AAY4100 KSBP FenixA320_... 2024-01-20 18:37:19
AAY62 KSCK FenixA320_... 2024-01-19 03:20:15
AAY9 KFAT SGA McDonn... 2024-01-18 18:51:41
AAY3119 KVPS PMDG 737-8... 2024-01-17 23:42:57
AAY2055 KDSM PMDG 737-8... 2024-01-17 18:15:17
AAY3214 KPVU FenixA320_... 2024-01-16 05:04:36
AAY1640 KBOI FenixA320_... 2024-01-15 21:46:55
AAY1640 KBOI FenixA320_... 2024-01-15 02:49:17
AAY951 KMEM FenixA320_... 2024-01-14 16:17:53
AAY1640 KBOI FenixA320_... 2024-01-14 15:11:42
AAY1640 KBOI FenixA320_... 2024-01-14 10:48:22
AAY9 KFAT PMDG 737-7... 2024-01-13 18:10:48
AAY51 KFAT FenixA320_... 2024-01-13 12:48:55
AAY1594 KPVU Fly The Ma... 2024-01-13 22:56:14
AAY75 KTYS FenixA320_... 2024-01-12 05:11:56
AAY688 KIWA FenixA320_... 2024-01-12 14:41:24
AAY218 KAVL FenixA320_... 2024-01-11 11:34:39
AAY1399 KSNA ToLissA320... 2024-01-11 01:39:10
AAY1 KBIS FenixA320_... 2024-01-11 04:57:27
AAY1640 KBOI FenixA320_... 2024-01-10 18:42:32
AAY1640 KBOI FenixA320_... 2024-01-10 17:49:38
AAY951 KBLI PMDG 737-7... 2024-01-09 16:33:02
AAY34 KMFR FenixA320_... 2024-01-09 18:52:23
AAY1640 KBOI Fly The Ma... 2024-01-08 18:46:26
AAY7 KELP PMDG 737-7... 2024-01-07 18:24:11
AAY441 KDSM FenixA320_... 2024-01-07 08:09:23
AAY96 KSMX N272NV 2024-01-06 08:50:00
AAY667 KGEG FenixA320_... 2024-01-06 13:04:23
AAY56 KSGF PMDG 737-8... 2024-01-02 02:25:35
AAY96 KSMX FWB Allegi... 2024-01-01 22:32:50
AAY1640 KBOI Fly The Ma... 2024-01-01 19:59:42
AAY3214 KPVU ToLissA319... 2023-12-29 00:27:58
AAY56 KSGF Fly The Ma... 2023-12-28 11:23:59
AAY124 KJAC FenixA320_... 2023-12-27 16:13:30
AAY3244 KPVU PA319 - Al... 2023-12-25 19:15:12
AAY6 KFAT Fly The Ma... 2023-12-24 04:05:19
AAY93 KMEM FenixA320_... 2023-12-21 22:52:09
AAY89 KOAK FenixA320_... 2023-12-21 05:24:53
AAY3214 KPVU FenixA320_... 2023-12-16 04:17:27
AAY20 KICT ToLissA319... 2023-12-15 03:55:11
AAY3248 KPVU FenixA320_... 2023-12-06 18:12:02
AAY31 KBOI FenixA320_... 2023-12-02 06:59:55
AAY25 KGJT ToLissA319... 2023-11-30 20:54:50
AAY1234 KSFB Airbus A32... 2023-11-24 11:45:26
AAY1712 KFAT PA319 - Al... 2023-11-11 18:35:47
AAY90 KOKC FenixA320_... 2023-10-31 15:01:46
AAY627 KMSP FenixA320_... 2023-10-28 17:15:40
AAY383 KLAX ToLissA320... 2023-10-25 19:11:04
AAY1 KBIL Airbus A31... 2023-10-25 12:12:31
AAY416 KMFE QWSim Boei... 2023-10-15 18:15:37
AAY383 KSNA ToLissA320... 2023-10-15 19:54:43
AAY1701 KFAR Fly The Ma... 2023-10-15 17:02:06
AAY1594 KPVU FenixA320_... 2023-10-09 01:20:16
AAY1594 KPVU FenixA320... 2023-10-06 17:37:56
AAY75 KXNA Fly The Ma... 2023-09-23 17:02:29
{}G-FENX MROC FenixA320_... 2023-09-21 19:37:13
AAY1429 KTYS Airbus A31... 2023-09-18 18:53:53
AAY108 KIDA Airbus A31... 2023-09-18 00:44:48
AAY460 KCID Fly The Ma... 2023-09-17 17:44:13
AAY594 KBLI Fly The Ma... 2023-09-15 00:08:42
AAY9215 KSRQ Fly The Ma... 2023-09-14 21:40:28
AAY4135 KSGU FenixA320_... 2023-09-01 16:56:45
AAY47 KRAP FenixA320_... 2023-08-30 23:08:54
AAY51 KGRI FenixA320_... 2023-08-27 23:26:44
AAY32 KMFR FenixA320_... 2023-08-26 13:09:29
AAY14 KGPI FenixA320... 2023-08-25 21:59:02
AAY44 KSMX A320 2023-08-24 18:44:00
AAY93 KSMX FenixA320... 2023-08-23 07:36:26
AAY61 KSNA PA319 - Al... 2023-08-21 18:15:08
AAY9215 KSRQ FenixA320_... 2023-08-19 17:14:34
AAY65 KFAT Airbus A31... 2023-08-19 00:54:06
AAY11 KELP A319 2023-08-15 18:50:00
AAY7 KBOI FenixA320_... 2023-08-13 03:35:39
AAY51 KGRI FenixA320_... 2023-08-13 16:14:46
G4274 KBLI FenixA320_... 2023-08-12 17:17:27
AAY602 KIND A320 2023-08-11 12:30:00
AAY3147 KAUS FenixA320_... 2023-08-11 22:59:40
AAY45 KSAN A319 2023-08-11 22:45:00
2085 KLRD A319-100 C... 2023-08-11 05:20:00
AAY61 KSNA Airbus A31... 2023-08-05 02:52:38
AAY90 KIWA FWB Allegi... 2023-08-01 08:43:44
AAY890 KMEM A320 2023-07-31 19:25:00
AAY570 PHNL B757 2023-07-31 16:45:00
AAY9877 KLAX Airbus A32... 2023-07-27 21:50:42
AAY242 KAVL FWB Allegi... 2023-07-23 20:08:46
AAY61 KSNA Airbus A31... 2023-07-21 14:17:51
AAY23 KPIA FenixA320_... 2023-07-18 01:00:05
AAY61 KSNA ToLissA320... 2023-07-08 22:10:26
AAY436 KPIA Fly The Ma... 2023-07-07 13:30:35
AAY3233 KGEG Fly The Ma... 2023-07-06 00:27:48
AAY40 KMEM Fly The Ma... 2023-07-05 17:48:32
AAY613 KIND FenixA320_... 2023-07-04 16:18:04
AAY383 KSNA ToLissA320... 2023-06-30 18:40:06
AAY402 KSGF Rotate-MD-... 2023-06-27 16:26:21
AAY40 KMEM FWB Allegi... 2023-06-15 15:30:00
800 KSFB Fly The Ma... 2023-06-13 17:41:39
AAY7 KFAT FenixA320... 2023-06-11 00:43:09
AAY4400 KSMF A20N 2023-06-12 16:45:00
AAY400 KSBN Fly The Ma... 2023-06-08 20:51:56
AAY20 KFLL FWB Allegi... 2023-06-06 16:55:38
AAY31 KBOI Airbus A31... 2023-06-05 08:32:27
AAY159 KAVL FWB Allegi... 2023-06-04 18:04:42
AAY31 KBOI FWB Allegi... 2023-05-30 21:13:07
AAY281 KBLI FenixA320_... 2023-05-30 19:00:58
AAY142 KSAN Airbus A31... 2023-05-28 12:43:29
AAY9200 KIWA FWB ALLEGI... 2023-05-21 03:40:36
AAY3300 KPVU PA319 - Al... 2023-05-21 19:40:01
AAY3 KBIS FWB ALLEGI... 2023-05-20 15:37:49

Arrivals History (last 12 months)

Flight No. Origin Aircraft Date
AAY9204 KIWA Fenix A320... 2024-05-16 02:39:25
AAY9204 KIWA Fenix A320... 2024-05-13 00:21:07
AAY41 KPVU FSLabs A31... 2024-05-13 02:16:12
AAY57 KMSO Fenix A320... 2024-05-12 04:58:14
AAY40 KMLI Fly The Ma... 2024-05-12 20:01:45
AAY40 KMLI Fenix A320... 2024-05-11 19:01:47
AAY40 KMLI Fenix A320... 2024-05-11 15:50:02
AAY40 KMLI Fenix A320... 2024-05-10 02:15:24
AAY7 KFAT Airbus A32... 2024-05-06 19:27:33
AAY51 KMEM Fly The Ma... 2024-05-06 13:48:27
AAY64 KOKC Fly The Ma... 2024-05-04 11:36:51
AAY76 KTYS Fenix A320... 2024-05-02 00:01:34
AAY273 KBLI A20N 2024-04-30 08:03:00
AAY2 KLEX Fenix A320... 2024-04-30 17:20:30
AAY4901 KLAX FWB Allegi... 2024-04-28 03:27:01
AAY1526 KFNT Fly The Ma... 2024-04-28 18:20:34
AAY9901 KGJT FenixA320... 2024-04-26 14:05:58
AAY133 KIWA FenixA320... 2024-04-22 12:57:23
AAY4103 KCMH Fenix A320... 2024-04-20 10:15:08
AAY40 KMLI Fenix A320... 2024-04-17 20:45:35
AAY9901 KMYR Fenix A320... 2024-04-12 09:52:06
AAY9300 KPIE ToLiss A31... 2024-04-10 01:30:24
AAY4903 KLAX FWB Allegi... 2024-04-10 01:45:07
AAY4901 KLAX FWB Allegi... 2024-04-05 08:20:44
AAY3202 KATW FenixA320... 2024-03-27 21:05:35
AAY9100 KPIE FenixA320... 2024-03-26 20:55:45
AAY44 KSBN Fenix A320... 2024-03-25 21:00:39
AAY9 KSCK PA319 - Al... 2024-03-24 18:46:17
AAY8011 CYYC Fenix A320... 2024-03-24 15:54:38
AAY383 KPHX ToLissA320... 2024-03-24 21:38:55
AAY552 KGRR A320 2024-03-23 16:29:00
AAY643 KIWA ToLiss319_... 2024-03-19 01:12:12
AAY8011 CYYC Fenix A320... 2024-03-18 22:20:29
AAY34 KPIA Fly The Ma... 2024-03-18 13:03:38
AAY30 KLRD Fenix A320... 2024-03-12 23:53:43
AAY9901 CYVR Fenix A320... 2024-03-11 21:23:52
AAY8011 CYYC Fly The Ma... 2024-03-10 14:41:41
AAY4102 KLAX Fenix A320... 2024-03-09 07:28:25
AAY133 KIWA Fenix A320... 2024-03-07 04:06:58
AAY67 KELP Fenix A320... 2024-03-06 02:08:08
AAY8000 KCMH Fenix A320... 2024-03-05 19:40:27
AAY126 KPVU Fenix A320... 2024-03-05 03:36:36
AAY69 KOAK FenixA320_... 2024-03-01 17:36:04
AAY4102 KLAX FenixA320_... 2024-02-29 13:49:28
AAY46 KRFD FenixA320_... 2024-02-28 20:20:31
AAY9815 MMUN FenixA320_... 2024-02-26 22:00:30
AAY4102 KSJC Fly The Ma... 2024-02-26 17:50:35
AAY34 KPIA Fly The Ma... 2024-02-26 14:54:44
AAY4102 KSJC FenixA320_... 2024-02-25 16:20:03
AAY3214 KPHX FenixA320_... 2024-02-25 13:49:22
AAY49 KOMA FenixA320_... 2024-02-24 20:30:49
AAY133 KIWA FenixA320_... 2024-02-24 02:45:11
AAY8011 CYYC FenixA320_... 2024-02-23 19:19:34
AAY4102 KSJC Airbus A32... 2024-02-21 21:59:50
AAY4102 KSJC FenixA320_... 2024-02-20 22:53:28
AAY4102 KSJC FenixA320_... 2024-02-19 20:30:24
AAY3214 KPHX FenixA320_... 2024-02-19 13:51:51
AAY9100 KPGD FenixA320_... 2024-02-18 10:11:53
AAY3214 KPHX PMDG 737-8... 2024-02-18 13:30:09
AAY9901 KPIE FenixA320_... 2024-02-16 17:29:47
AAY114 KMRY Airbus A31... 2024-02-16 04:21:57
AAY92 KIDA ToLissA319... 2024-02-14 18:27:15
AAY4102 KLAX FenixA320_... 2024-02-14 02:41:44
AAY3214 KPHX FWB Allegi... 2024-02-11 22:12:54
AAY3214 KPHX FWB Allegi... 2024-02-11 18:15:36
AAY3214 KPHX FenixA320_... 2024-02-11 16:59:04
AAY3214 KPHX PMDG 737-8... 2024-02-10 06:44:32
AAY3214 KPHX Airbus A31... 2024-02-10 04:17:47
AAY64 KDSM FenixA320_... 2024-02-06 10:39:13
AAY3135 KAUS FenixA320_... 2024-02-02 02:40:46
AAY3135 KAUS FenixA320_... 2024-01-31 00:03:22
AAY82 KMEM FWB Allegi... 2024-01-29 22:55:51
AAY433 KDSM Fly The Ma... 2024-01-29 18:26:24
AAY3135 KAUS FenixA320_... 2024-01-29 20:53:26
AAY2283 KIWA FenixA320_... 2024-01-28 01:52:34
AAY1597 KPVU Airbus A31... 2024-01-23 05:18:34
AAY3135 KAUS FenixA320_... 2024-01-16 20:48:45
AAY951 KFAT FenixA320_... 2024-01-14 14:43:42
AAY269 KAVL FenixA320_... 2024-01-14 04:30:51
AAY3135 KAUS PMDG 737-7... 2024-01-13 16:57:24
AAY951 KAUS PMDG 737-7... 2024-01-12 16:57:45
AAY75 KTYS FenixA320_... 2024-01-12 13:52:57
AAY75 KICT 757-200 AL... 2024-01-11 18:12:26
AAY4 KBZN FenixA320_... 2024-01-11 20:56:12
AAY3135 KAUS PMDG 737-8... 2024-01-11 20:28:34
AAY218 KAVL FenixA320_... 2024-01-11 20:45:04
AAY1 KBIS FenixA320_... 2024-01-11 11:20:36
AAY951 KBLI PMDG 737-7... 2024-01-10 17:09:30
AAY86 KMFR FenixA320_... 2024-01-10 09:24:27
AAY67 KMEM FenixA320_... 2024-01-10 17:16:14
AAY1640 KBOI FenixA320_... 2024-01-10 22:35:55
AAY951 KELP PMDG 737-7... 2024-01-08 17:03:17
AAY3248 KPVU PMDG 737-8... 2024-01-08 14:01:08
AAY116 KIWA FenixA320_... 2024-01-07 05:40:19
AAY96 KSMX FenixA320_... 2024-01-06 12:18:01
AAY951 KSGF PMDG 737-7... 2024-01-06 17:06:16
AAY667 KGEG FenixA320_... 2024-01-06 18:21:42
AAY3135 KAUS PMDG 737-8... 2024-01-06 18:23:46
AAY76 KSCK PA319 - Al... 2024-01-05 20:06:00
AAY92 KGJT ToLissA319... 2023-12-28 21:13:01
AAY1544 KFNT Fly The Ma... 2023-12-27 20:30:04
AAY433 KDSM PMDG 737-8... 2023-12-25 23:52:02
AAY9100 KPVU FenixA320_... 2023-12-21 04:41:25
AAY133 KIWA FenixA320_... 2023-11-29 02:39:13
AAY15 KFAT PA319 - Al... 2023-11-28 21:13:43
AAY6486 KBGR Airbus A32... 2023-11-26 01:20:46
AAY2049 KCVG ToLissA319... 2023-11-24 00:40:36
AAY571 PHNL Boeing 757... 2023-11-21 15:40:13
AAY9901 KLAX McDonnell... 2023-11-06 16:17:23
AAY4102 KSAN FenixA320_... 2023-10-30 02:56:19
AAY62 KMFE FenixA320_... 2023-10-23 23:42:58
AAY119 KIWA Airbus A32... 2023-10-18 13:57:36
AAY427 KFAR Fly The Ma... 2023-10-16 00:57:57
AAY103 KRNO PA319 - Al... 2023-10-12 20:10:29
AAY60 KSNA Airbus A31... 2023-09-27 02:36:40
AAY1430 KTYS Airbus A31... 2023-09-19 21:21:00
AAY461 KCID Fly The Ma... 2023-09-18 00:14:27
AAY24 KIDA Airbus A31... 2023-09-18 04:06:34
AAY383 KLAX ToLissA320... 2023-09-14 19:47:37
AAY9216 KSRQ Aerosoft A... 2023-09-13 20:22:36
AAY383 KPHX ToLissA321... 2023-08-28 01:53:57
AAY101 KGRI FenixA320_... 2023-08-28 01:34:33
AAY845 KABQ FenixA320_... 2023-08-26 01:25:18
AAY35 KMFR FenixA320_... 2023-08-26 20:15:32
AAY85 KGPI A320 2023-08-25 19:50:00
AAY93 KLRD A319 2023-08-24 21:50:00
AAY102 KGRI FenixA320_... 2023-08-19 02:29:58
AAY60 KSNA FenixA320_... 2023-08-14 02:57:00
AAY622 KIND FenixA320_... 2023-08-13 00:27:51
AAY48 KSAN A319 2023-08-11 23:20:00
AAY1499 KAUS FenixA320_... 2023-08-11 02:38:01
AAY93 KLRD A319 2023-08-11 23:30:00
AAY60 KSNA Airbus A31... 2023-08-06 03:10:00
AAY431 KRNO SGA McDonn... 2023-08-04 19:20:45
AAY1594 KPVU FWB Allegi... 2023-08-01 20:16:59
AAY9216 KSRQ A320 2023-07-31 19:00:00
AAY571 PHNL B757 2023-07-31 08:05:00
AAY122 KVPS Fly The Ma... 2023-07-29 21:11:21
AAY122 KVPS MD82 2023-07-29 15:00:00
AAY2049 KCVG Fly The Ma... 2023-07-22 01:17:48
AAY4101 KMGM Fly The Ma... 2023-07-21 18:45:06
AAY565 KEUG Fly The Ma... 2023-07-20 01:38:28
AAY378 KCVG Airbus A32... 2023-07-20 17:23:00
AAY1597 KPVU FWB Allegi... 2023-07-20 00:47:37
AAY9902 KIWA FenixA320_... 2023-07-19 02:25:40
AAY234 KAVL Fly The Ma... 2023-07-19 23:15:12
AAY497 KDSM Fly The Ma... 2023-07-17 01:45:13
AAY79 KFWA Airbus A31... 2023-07-16 00:01:05
AAY441 KGPI Fly The Ma... 2023-07-16 03:23:39
AAY272 KBLI FenixA320_... 2023-07-11 23:31:28
AAY435 KTYS Fly The Ma... 2023-07-07 23:32:01
AAY595 KBLI Fly The Ma... 2023-07-06 23:33:02
AAY429 KRAP Fly The Ma... 2023-07-05 02:10:06
AAY4 KBIS Fly The Ma... 2023-07-05 23:52:37
AAY136 KGJT FenixA320_... 2023-07-02 21:10:56
800 KSFB Rotate-MD-... 2023-06-26 22:22:30
AAY119 KIWA FenixA320_... 2023-06-16 23:22:56
AAY383 KLAX ToLissA321... 2023-06-15 20:28:42
801 KSFB Fly The Ma... 2023-06-15 00:39:32
AAY31 KFLL FWB Allegi... 2023-06-13 19:59:20
AAY234 KAVL FWB Allegi... 2023-06-11 23:05:54
AAY1652 KOKC FenixA320_... 2023-06-07 03:29:19
800 KSFB Fly The Ma... 2023-06-07 20:38:24
AAY63 KIDA Airbus A31... 2023-06-06 09:07:36
AAY33 KOAK Airbus A32... 2023-06-05 04:10:27
AAY90 KSAN FWB Allegi... 2023-06-03 22:18:14
AAY133 KIWA FWB Allegi... 2023-05-30 20:40:21
AAY89 KSNA Airbus A31... 2023-05-22 04:26:54
AAY9203 KLAX FWB ALLEGI... 2023-05-21 03:10:26

Runway Information (Airport elevation: 2,114ft)

Runway 01L Length 9,766ft Width 141ft Elevation 2,114ft Surface Asphalt Heading 25
Runway 01R Length 9,768ft Width 149ft Elevation 2,114ft Surface Asphalt Heading 25
Runway 08L Length 14,847ft Width 144ft Elevation 2,114ft Surface Asphalt Heading 90
Runway 08R Length 10,527ft Width 150ft Elevation 2,114ft Surface Asphalt Heading 90
Runway 19L Length 9,768ft Width 149ft Elevation 2,114ft Surface Asphalt Heading 205
Runway 19R Length 9,766ft Width 141ft Elevation 2,114ft Surface Asphalt Heading 205
Runway 26L Length 10,527ft Width 150ft Elevation 2,114ft Surface Asphalt Heading 270
Runway 26R Length 14,847ft Width 144ft Elevation 2,114ft Surface Asphalt Heading 270

Airport Frequencies

Type APP/DEP Frequency 119.775 Mhz
Type APP/DEP Frequency 125.025 Mhz
Type APP/DEP Frequency 120.450 Mhz
Type ATIS Frequency 132.400 Mhz
Type Clearance Frequency 118.000 Mhz
Type D Frequency 125.900 Mhz
Type D Frequency 133.950 Mhz
Type FSS Frequency 122.400 Mhz
Type Ground Frequency 121.100 Mhz
Type Ground Frequency 121.900 Mhz
Type Ground Frequency 124.400 Mhz
Type Ground Frequency 127.900 Mhz
Type Ground Frequency 130.000 Mhz
Type Tower Frequency 118.750 Mhz
Type Tower Frequency 119.900 Mhz
Type UC Frequency 122.950 Mhz
Type APP/DEP Frequency 120.450 Mhz
Type Clearance Frequency 118.000 Mhz
Type D Frequency 119.775 Mhz
Type D Frequency 125.025 Mhz
Type D Frequency 125.475 Mhz
Type Ground Frequency 124.400 Mhz
Type Ground Frequency 127.900 Mhz
Type UC Frequency 122.950 Mhz

Airport Navaids

Type VORTAC Ident LAS Frequency 116900 Khz